Home   Weather   Stockholm   Past weeks
Flag for Sweden

Past Weather in Stockholm, Sweden — Yesterday and Last 2 Weeks

Now
41 °F

Overcast.


Feels Like: 35 °F
Forecast: 37 / 28 °F
Wind: 9 mph from Northeast

Location: Stockholm Bromma Airport

Current Time: Mar 28, 2020 at 6:16:26 pm

Latest Report: Mar 28, 2020 at 5:50 pm


Visibility: N/A

Pressure: 30.18 "Hg

Humidity: 39%

Dew Point: 18 °F

Location of StockholmLocation

Past Weather in Stockholm — Graph

°F

Stockholm Temperature Yesterday

Maximum temperature yesterday: 52 °F (at 12:20 pm)
Minimum temperature yesterday: 27 °F (at 4:20 am)
Average temperature yesterday: 39 °F

High & Low Weather Summary for the Past Weeks

 TemperatureHumidityPressure
High54 °F (Mar 25, 3:20 pm)100% (Mar 16, 5:20 am)30.77 "Hg (Mar 16, 5:20 am)
Low18 °F (Mar 22, 5:20 am)22% (Mar 25, 3:20 pm)29.53 "Hg (Mar 13, 4:20 pm)
Average38 °F62%30.20 "Hg
* Reported Mar 13 4:20 pm — Mar 28 4:50 pm, Stockholm. Weather by CustomWeather, © 2020

Note: Actual official high and low records may vary slightly from our data, if they occured in-between our weather recording intervals... More about our weather records

Stockholm Weather History for the Previous 24 Hours

Scroll right to see more
 ConditionsComfort  
Time TempWeatherWind HumidityBarometerVisibility
4:50 pm
Sat, Mar 28
41 °FPassing clouds.13 mph45%30.15 "HgN/A
4:20 pm43 °FPassing clouds.12 mph42%30.15 "HgN/A
3:50 pm43 °FPassing clouds.14 mph42%30.15 "HgN/A
3:20 pm45 °FSunny.12 mph37%30.15 "Hg10 mi
2:50 pm46 °FPassing clouds.10 mph37%30.15 "HgN/A
2:20 pm46 °FSunny.10 mph40%30.12 "Hg10 mi
1:50 pm48 °FPassing clouds.8 mph40%30.12 "HgN/A
1:20 pm48 °FPassing clouds.7 mph40%30.12 "HgN/A
12:50 pm48 °FPartly sunny.9 mph43%30.12 "HgN/A
12:20 pm48 °FScattered clouds.5 mph46%30.12 "HgN/A
11:50 am48 °FScattered clouds.8 mph50%30.12 "HgN/A
11:20 am48 °FPassing clouds.9 mph46%30.12 "HgN/A
10:50 am48 °FPassing clouds.7 mph46%30.12 "HgN/A
10:20 am46 °FSunny.6 mph50%30.12 "Hg10 mi
9:50 am43 °FPassing clouds.6 mph61%30.12 "HgN/A
9:20 am41 °FPassing clouds.5 mph66%30.12 "HgN/A
8:20 am39 °FSunny.9 mph65%30.12 "Hg10 mi
7:50 am39 °FOvercast.6 mph65%30.12 "HgN/A
7:20 am39 °FOvercast.5 mph65%30.12 "HgN/A
6:50 am37 °FScattered clouds.2 mph70%30.12 "HgN/A
6:20 am34 °FScattered clouds.2 mph75%30.12 "HgN/A
5:50 am34 °FPartly sunny.2 mph75%30.12 "HgN/A
5:20 am34 °FOvercast.2 mph75%30.12 "HgN/A
4:50 am32 °FOvercast.No wind80%30.12 "HgN/A
4:20 am30 °FOvercast.No wind80%30.15 "HgN/A
3:50 am30 °FPassing clouds.2 mph80%30.15 "HgN/A
3:20 am30 °FChilly.2 mph80%30.15 "HgN/A
2:50 am30 °FChilly.3 mph80%30.15 "HgN/A
2:20 am30 °FChilly.2 mph80%30.15 "HgN/A
1:50 am32 °FPassing clouds.No wind75%30.18 "HgN/A
1:20 am32 °FChilly.1 mph75%30.18 "HgN/A
12:50 am32 °FChilly.1 mph75%30.18 "HgN/A
12:20 am36 °FChilly.3 mph65%30.18 "HgN/A
11:50 pm
Fri, Mar 27
36 °FChilly.5 mph65%30.21 "HgN/A
11:20 pm36 °FPassing clouds.3 mph70%30.21 "HgN/A
10:50 pm36 °FPassing clouds.5 mph70%30.21 "HgN/A
10:20 pm36 °FPassing clouds.5 mph70%30.21 "HgN/A
9:50 pm37 °FClear.5 mph65%30.24 "Hg10 mi
9:20 pm37 °FClear.6 mph65%30.24 "Hg10 mi
8:50 pm39 °FClear.6 mph61%30.24 "Hg10 mi
8:20 pm39 °FPassing clouds.5 mph61%30.24 "HgN/A
7:50 pm41 °FClear.6 mph53%30.24 "Hg10 mi
7:20 pm41 °FClear.5 mph53%30.24 "Hg10 mi
6:50 pm43 °FClear.5 mph49%30.24 "Hg10 mi
6:20 pm45 °FClear.5 mph42%30.24 "Hg10 mi
Weather by CustomWeather, © 2020

See weather overview

Advertising